Regional Weather Roundup
Issued by NWS New Orleans/Baton Rouge, LA

Home | Current Version | Previous Version | Text Only | Print | Product List | Glossary On
Versions: 1 2 3 4 5 6 7 8 9 10 11 12 13 14 15 16 17 18 19 20 21 22 23 24 25 26 27 28 29 30 31 32 33 34 35 36 37 38 39 40 41 42 43 44 45 46 47 48 49 50
959
ASUS44 KLIX 241905
RWRLIX
NEW ORLEANS REGIONAL WEATHER ROUNDUP
NATIONAL WEATHER SERVICE NEW ORLEANS LA
100 PM CST MON NOV 24 2014

NOTE: "FAIR" INDICATES FEW OR NO CLOUDS BELOW 12,000 FEET WITH NO
      SIGNIFICANT WEATHER AND/OR OBSTRUCTIONS TO VISIBILITY.
      SKY/WX - SKY CONDITION AND SIGNIFICANT WEATHER.
      TMP - AIR TEMPERATURE.     DP    - DEWPOINT TEMPERATURE.
      RH  - RELATIVE HUMIDITY.   PRES  - PRESSURE.
      HI  - HEAT INDEX.          WCI   - WIND CHILL INDEX.

*  THESE STATIONS ARE NOT NWS OR FAA STATIONS AND ARE NOT UNDER
   NWS QUALITY CONTROL.

LAZ038-040-048-061>063-065>067-069-242000-
SOUTHEAST LOUISIANA

CITY           SKY/WX    TMP DP  RH WIND       PRES   REMARKS
N.O. AUDUBON     N/A     70  53  54 MISG        N/A
N.O. INTL ARPT PTSUNNY   69  50  50 NW12      29.88F
N.O. LAKEFRONT SUNNY     64  55  72 W8        29.89S
N.O. DOWNTOWN*   N/A     68  48  49 NW5       29.89S
SLIDELL        SUNNY     72  51  47 N9        29.86S
BATON ROUGE    SUNNY     65  44  46 NW8G17    29.92F
BOOTHVILLE     MOSUNNY   70  59  68 NW14      29.86F
BELLE CHASSE   PTSUNNY   71  48  43 VRB7      29.87S
BOGALUSA*        N/A     70  48  45 NW12      29.90S
NEW ROADS*       N/A     62  44  52 NW10G16   29.94S
GONZALES*        N/A     66  46  48 NW13G20   29.90S
HAMMOND*       SUNNY     70  45  40 N14       29.90F
HOUMA*         SUNNY     72  52  49 NW14      29.88S
PORT FOURCHON* CLEAR     73  59  60 N9        29.90S

$$

MSZ070-080>082-242000-
SOUTHERN MISSISSIPPI

CITY           SKY/WX    TMP DP  RH WIND       PRES   REMARKS
MCCOMB         SUNNY     64  43  46 N12       29.91F
GULFPORT       SUNNY     75  50  41 W8        29.84S
BILOXI         SUNNY     78  55  44 VRB3      29.83F
PASCAGOULA     SUNNY     76  62  62 S7        29.83S
STENNIS ARPT*  SUNNY     73  46  38 NW8G16    29.86S

$$

COASTAL OBSERVATIONS
LAKE AND NEARSHORE STATIONS

STATION/POSITION TIME  TEMP    WIND        PRES    WAVE
                       AIR SEA DIR/SP/G            HT/PER
                 (UTC) (F)     (DEG/KT/KT) (MB)    (FT/S)
PASCAGOULA       1900   66     240/  9/ 12 1009.9
WAVELAND YACHT   1900   70     350/  8/ 10 1010.1
GRAND ISLE       1900   69 66  340/  9/ 11 1011.9
SOUTHWEST PASS   1900   73                 1011.1
NEW CANAL        1900   62 57  290/  1/  4 1012.2
SHELL BEACH      1900   64 56  300/ 12/ 13 1011.2

OFFSHORE STATIONS

STATION/POSITION TIME  TEMP    WIND        PRES    WAVE
                       AIR SEA DIR/SP/G            HT/PER
                 (UTC) (F)     (DEG/KT/KT) (MB)    (FT/S)
64 S DAUPHIN ISL 1807   70 72  310/ 10/ 12 1010.9    5/ 7

$$




USA.gov is the U.S. government's official web portal to all federal, state and local government web resources and services.